Satellite-Ground Cal/Val Region Overpasses Predictions

Prediction of Satellite NPP Overpassing Cal/Val Region: PacN

Region Location: (Latitude: 15.00, Longitude: 179.40) to (Latitude: 23.50, Longitude: 200.60).

Table of predicted overpasses for the next 14.0 days since TLE Epoch: 6/5/2020
Interval Starting Time Starting Location Ending Time Ending Location
1 06/06/2020 13:36:45 ( 18.74, 179.99) 06/06/2020 13:37:27 ( 16.28, 179.40)
2 06/11/2020 01:12:40 ( 19.17, 180.00) 06/11/2020 01:13:21 ( 21.58, 179.41)
3 06/11/2020 13:41:44 ( 23.47, 179.58) 06/11/2020 13:41:56 ( 22.76, 179.41)


NCC Satellite Cal/Val Overpasses Prediction Service
